Regional Weather Roundup
Issued by NWS Sioux Falls, SD

Home | Current Version | Previous Version | Graphics & Text | Print | Product List | Glossary On
Versions: 1 2 3 4 5 6 7 8 9 10 11 12 13 14 15 16 17 18 19 20 21 22 23 24 25 26 27 28 29 30 31 32 33 34 35 36 37 38 39 40 41 42 43 44 45 46 47 48 49 50
000
ASUS43 KFSD 022010
RWRFSD

WEATHER ROUNDUP FOR SE SOUTH DAKOTA/SW MINNESOTA/NW IOWA
NATIONAL WEATHER SERVICE SIOUX FALLS SD
300 PM CDT THU JUL 02 2015

NOTE: "FAIR" INDICATES FEW OR NO CLOUDS BELOW 12,000 FEET WITH NO
SIGNIFICANT WEATHER AND OR OBSTRUCTIONS TO VISIBILITY.


SDZ038>040-050-052>070-022100-
SOUTHEAST SOUTH DAKOTA

CITY           SKY/WX    TMP DP  RH WIND       PRES   REMARKS
BROOKINGS      CLOUDY    70  46  43 CALM      30.03R
CHAMBERLAIN    PTSUNNY   74  63  69 N6        29.98S
HURON          CLOUDY    66  60  81 N3        29.99S
MADISON        FAIR      68  54  60 E9        30.01S
MITCHELL       CLOUDY    70  62  76 E10       29.99R
SIOUX FALLS    CLOUDY    70  57  63 SE6       30.00R
YANKTON        CLOUDY    64  61  88 E7        29.98R
$$

MNZ071-072-080-081-089-090-097-098-022100-
SOUTHWEST MINNESOTA

CITY           SKY/WX    TMP DP  RH WIND       PRES   REMARKS
FAIRMONT       MOSUNNY   72  46  40 SE7       30.01S
JACKSON        PTSUNNY   73  50  43 S8        30.02S
LUVERNE        CLOUDY    72  55  56 E7        30.01S
MARSHALL       PTSUNNY   72  46  40 E7        30.00F
MONTEVIDEO     PTSUNNY   73  52  46 SW6       30.01F
PIPESTONE      CLOUDY    70  46  43 SE7       30.01S
REDWOOD FALLS  PTSUNNY   75  47  36 S10       30.01R
TRACY          PTSUNNY   74  50  42 SE8       30.01F
WINDOM         MOSUNNY   73  46  38 E6        30.01F
WORTHINGTON    PTSUNNY   68  50  52 SE9       30.02S
$$

IAZ001>003-012>014-020>022-031-032-NEZ013-014-SDZ071-022100-
NORTHWEST IOWA

CITY           SKY/WX    TMP DP  RH WIND       PRES   REMARKS
CHEROKEE       CLOUDY    67  58  74 SE6       30.00S
DENISON        CLOUDY    66  61  82 E9        29.97S
ESTHERVILLE    PTSUNNY   69  51  52 SE8       30.02R
LE MARS        CLOUDY    66  59  77 VRB7      30.01R
ORANGE CITY    CLOUDY    66  57  72 E5        30.00S
SHELDON        CLOUDY    70  61  73 SE10      30.00S
SIOUX CITY     CLOUDY    69  61  75 E13       29.97S
SPENCER        CLOUDY    71  52  50 E7        30.01F
STORM LAKE     CLOUDY    66  57  72 E9        30.01F
$$

ABBREVIATIONS USED IN REMARKS
   TC - TEMPERATURE IN CELSIUS
  WCI - WIND CHILL INDEX
   HX - HEAT INDEX
  VSB - VISIBILITY




USA.gov is the U.S. government's official web portal to all federal, state and local government web resources and services.